Location: Dumpton Point
(51.3500°N, 1.4433°E)
Time: 23:57:53
(UTC+00:00)

Vanguard 1 - Pass Details

Date: 28 September 2022
Orbit: 650 x 3831 km, 34.2° (Epoch: 03 December)

Event Time Altitude Azimuth Distance (km) Brightness Sun altitude
Rises 19:07:23 0° 255° (WSW) 4,390 14.5 -14.5°
Reaches altitude 10° 19:13:15 10° 224° (SW) 2,748 12.7 -15.4°
Maximum altitude 19:14:59 11° 207° (SSW) 2,490 12.3 -15.7°
Drops below altitude 10° 19:16:34 10° 190° (S) 2,429 12.0 -15.9°
Enters shadow 19:18:57 - 167° (SSE) 2,679 12.0 -16.3°
Sets 19:20:39 0° 154° (SSE) 3,064 - -16.5°
